Flag for Thailand Weather past 2 weeks in Phuket, Thailand

Now
81 °F

Partly sunny.


Feels Like: 85 °F
Forecast: 79 / 87 °F
Wind: 17 mph from Northeast

Location: Phuket Airport

Current Time: Dec 18, 2014 at 9:52:54 AM

Latest Report: Dec 18, 2014 at 9:00 AM


Visibility: 5 mi

Pressure: 29.92 "Hg

Humidity: 74%

Dew point: 72 °F

Location of PhuketLocation

Historic Weather in Phuket — Graph

°F

Phuket temperature yesterday

Maximum temperature yesterday: 90 °F (at 12:00 PM)
Minimum temperature yesterday: 75 °F (at 5:00 PM)
Average temperature yesterday: 82 °F

Past Weeks' High & Low Weather Summary

 TemperatureHumidityPressure
High90 °F (Dec 4, 2:00 PM)94% (Dec 3, 10:00 PM)29.95 "Hg (Dec 3, 10:00 PM)
Low75 °F (Dec 5, 7:00 PM)49% (Dec 11, 11:00 AM)29.74 "Hg (Dec 3, 3:30 PM)
Average82 °F76%29.86 "Hg
* Reported Dec 3 8:00 AM — Dec 18 8:30 AM, Phuket, Weather by CustomWeather, © 2014

Note: Actual official high and low records may vary slightly from our data, if they occured in-between our weather recording intervals... More about our weather records

Advertising

Phuket weather history for previous 24 hours

 ConditionsComfort  
Time TempWeatherWind HumidityBarometerVisibility
8:30 AM
Dec 18
79 °FPartly sunny.9 mph79%29.89 "Hg5 mi
8:00 AM79 °FPartly sunny.7 mph74%29.89 "Hg5 mi
7:30 AM79 °FBroken clouds.8 mph74%29.89 "Hg4 mi
7:00 AM79 °FLight rain. Broken clouds.5 mph74%29.86 "Hg4 mi
6:30 AM79 °FLight rain. Partly cloudy.7 mph74%29.86 "Hg4 mi
6:00 AM79 °FPassing clouds.7 mph74%29.86 "Hg5 mi
5:30 AM79 °FPassing clouds.9 mph74%29.83 "Hg5 mi
5:00 AM79 °FPassing clouds.10 mph74%29.83 "Hg5 mi
4:30 AM79 °FPassing clouds.9 mph74%29.83 "Hg5 mi
4:00 AM79 °FPassing clouds.9 mph74%29.80 "Hg5 mi
3:30 AM79 °FPassing clouds.8 mph74%29.83 "Hg5 mi
3:00 AM79 °FPassing clouds.7 mph74%29.83 "Hg5 mi
2:30 AM79 °FPassing clouds.9 mph74%29.83 "Hg5 mi
2:00 AM79 °FPassing clouds.8 mph79%29.86 "Hg5 mi
1:30 AM79 °FPassing clouds.7 mph79%29.86 "Hg5 mi
1:00 AM79 °FPassing clouds.7 mph79%29.86 "Hg5 mi
12:30 AM79 °FPartly cloudy.9 mph79%29.86 "Hg5 mi
12:00 AM79 °FPartly cloudy.9 mph79%29.86 "Hg5 mi
11:30 PM
Dec 17
79 °FPartly cloudy.9 mph79%29.89 "Hg5 mi
11:00 PM79 °FPartly cloudy.8 mph79%29.89 "Hg5 mi
10:30 PM79 °FPartly cloudy.8 mph79%29.89 "Hg5 mi
10:00 PM79 °FPartly cloudy.7 mph79%29.89 "Hg5 mi
9:30 PM79 °FPartly cloudy.7 mph79%29.89 "Hg5 mi
9:00 PM79 °FPartly cloudy.7 mph84%29.89 "Hg5 mi
8:30 PM79 °FPartly cloudy.7 mph79%29.86 "Hg5 mi
8:00 PM79 °FPartly cloudy.7 mph84%29.86 "Hg5 mi
7:30 PM79 °FPartly cloudy.6 mph84%29.83 "Hg5 mi
7:00 PM79 °FPartly cloudy.5 mph84%29.83 "Hg5 mi
6:30 PM77 °FPartly cloudy.6 mph89%29.80 "Hg5 mi
6:00 PM77 °FScattered showers. Broken clouds.5 mph89%29.80 "Hg4 mi
5:30 PM77 °FScattered showers. Broken clouds.6 mph89%29.80 "Hg4 mi
5:00 PM75 °FLight rain. Broken clouds.7 mph94%29.83 "Hg3 mi
4:30 PM88 °FScattered showers. Broken clouds.3 mph62%29.77 "Hg6 mi
4:00 PM86 °FBroken clouds.5 mph62%29.77 "HgN/A
3:30 PM88 °FBroken clouds.12 mph59%29.77 "HgN/A
3:00 PM88 °FBroken clouds.9 mph59%29.77 "HgN/A
2:30 PM86 °FBroken clouds.8 mph66%29.77 "HgN/A
2:00 PM88 °FBroken clouds.13 mph59%29.77 "HgN/A
1:30 PM88 °FBroken clouds.10 mph59%29.80 "HgN/A
1:00 PM90 °FBroken clouds.10 mph59%29.80 "HgN/A
12:30 PM90 °FScattered clouds.13 mph55%29.83 "HgN/A
12:00 PM90 °FScattered clouds.12 mph52%29.83 "HgN/A
11:30 AM88 °FScattered clouds.17 mph59%29.83 "HgN/A
11:00 AM88 °FScattered clouds.20 mph59%29.86 "HgN/A
10:30 AM88 °FScattered clouds.12 mph62%29.86 "HgN/A
10:00 AM86 °FScattered clouds.12 mph62%29.86 "HgN/A
9:30 AM86 °FScattered clouds.8 mph66%29.86 "HgN/A
9:00 AM84 °FScattered clouds.13 mph66%29.86 "HgN/A
Weather by CustomWeather, © 2014

See weather overviewHow to use our weather pages